Location: Dumpton Point
(51.3500°N, 1.4433°E)
Time: 03:37:14
(UTC+00:00)

SAR-Lupe-2 - Pass Details

Date: 09 April 2020
Orbit: 481 x 485 km, 98.1° (Epoch: 27 May)

Event Time Altitude Azimuth Distance (km) Brightness Sun altitude
Rises 20:14:41 0° 21° (NNE) 2,557 7.4 -14.1°
Reaches altitude 10° 20:16:52 10° 30° (NNE) 1,672 6.3 -14.4°
Maximum altitude 20:20:13 36° 99° (E) 781 4.1 -14.9°
Enters shadow 20:21:13 30° 135° (SE) 898 4.3 -15.0°
